Weather History for KBIF - April, 2014

Change the Weather History Date:

Monday, April 21, 2014

  Actual Average Record
Temperature  
Mean Temperature 71 °F -  
Max Temperature 84 °F - - ()
Min Temperature 58 °F - - ()
Cooling Degree Days 6    
Growing Degree Days 21 (Base 50)    
Moisture  
Dew Point 35 °F    
Average Humidity 30    
Maximum Humidity 53    
Minimum Humidity 12    
Precipitation  
Precipitation 0.00 in - - ()
Sea Level Pressure  
Sea Level Pressure 29.97 in    
Wind  
Wind Speed 3 mph (East)    
Max Wind Speed 6 mph    
Max Gust Speed 16 mph    
Visibility 12 miles    
Events      
T = Trace of Precipitation, MM = Missing Value Source: NWS Daily Summary

Daily Weather History Graph

Daily Weather History Graph

Search for Another Location

Airport or City:

Trip Planner

Search our weather history database for the weather conditions in past years. The results will help you decide how hot, cold, wet, or windy it might be!

Date:

Astronomy

Apr. 21, 2014 Rise Set
Actual Time 6:30 AM MDT 7:38 PM MDT
Civil Twilight 6:04 AM MDT 8:04 PM MDT
Nautical Twilight 5:34 AM MDT 8:34 PM MDT
Astronomical Twilight 5:03 AM MDT 9:05 PM MDT
Moon 1:05 AM MDT (4/21) 12:04 PM MDT (4/21)
Length of Visible Light 13h 59m
Length of Day
13h 08m
Waning Gibbous, 57% of the Moon is Illuminated
Apr 21
Waning Gibbous
Apr 22
Last Quarter
Apr 29
New
May 6
First Quarter
May 14
Full

Hourly Weather History & Observations

Time (MDT) Temp. Dew Point Humidity Pressure Visibility Wind Dir Wind Speed Gust Speed Precip Events Conditions
12:56 AM 67.1 °F 38.7 °F 35% 29.96 in 12.0 mi SSE 3.5 mph - N/A   Partly Cloudy
1:56 AM 64.0 °F 42.8 °F 46% 29.96 in 12.0 mi East 4.6 mph - N/A   Clear
2:56 AM 63.1 °F 42.8 °F 47% 29.97 in 12.0 mi ESE 2.3 mph - N/A   Clear
3:56 AM 61.3 °F 43.3 °F 52% 29.96 in 12.0 mi ESE 4.6 mph - N/A   Clear
4:56 AM 61.5 °F 41.2 °F 47% 29.96 in 12.0 mi ESE 5.8 mph - N/A   Clear
5:56 AM 59.5 °F 42.4 °F 53% 29.99 in 11.0 mi South 4.6 mph - N/A   Clear
6:56 AM 58.6 °F 41.5 °F 53% 30.01 in 12.0 mi ESE 1.2 mph - N/A   Clear
7:56 AM 61.9 °F 39.2 °F 43% 30.02 in 12.0 mi SE 1.2 mph - N/A   Clear
8:56 AM 65.5 °F 41.2 °F 41% 30.04 in 9.0 mi NNE 1.2 mph - N/A   Clear
9:56 AM 69.3 °F 40.6 °F 35% 30.03 in 10.0 mi SSE 1.2 mph - N/A   Clear
10:56 AM 74.7 °F 39.0 °F 28% 30.04 in 10.0 mi NE 3.5 mph - N/A   Clear
11:56 AM 78.4 °F 36.5 °F 22% 30.02 in 12.0 mi ENE 3.5 mph - N/A   Partly Cloudy
12:56 PM 79.7 °F 34.2 °F 19% 30.00 in 12.0 mi East 2.3 mph - N/A   Clear
1:56 PM 81.5 °F 32.2 °F 17% 29.98 in 12.0 mi ENE 5.8 mph - N/A   Clear
2:56 PM 83.7 °F 27.7 °F 13% 29.96 in 12.0 mi ESE 3.5 mph 16.1 mph N/A   Clear
3:56 PM 84.7 °F 26.4 °F 12% 29.93 in 12.0 mi NW 2.3 mph - N/A   Clear
4:56 PM 83.7 °F 24.6 °F 12% 29.92 in 12.0 mi NNE 4.6 mph - N/A   Clear
5:56 PM 83.5 °F 25.5 °F 12% 29.91 in 12.0 mi North 4.6 mph - N/A   Clear
6:56 PM 82.2 °F 24.3 °F 12% 29.92 in 12.0 mi WSW 1.2 mph - N/A   Clear
7:56 PM 80.2 °F 25.9 °F 14% 29.91 in 12.0 mi SW 2.3 mph - N/A   Clear
8:56 PM 79.5 °F 26.6 °F 14% 29.94 in 12.0 mi South 2.3 mph - N/A   Clear
9:56 PM 73.6 °F 36.7 °F 26% 29.94 in 11.0 mi NNE 2.3 mph - N/A   Clear
11:56 PM 68.5 °F 38.8 °F 34% 29.94 in 12.0 mi NE 2.3 mph - N/A   Clear